This is the latest recevied weather packets stored in our database for station/object AD7ZD. If no packets are shown the sender has not sent any weather packets the latest 10 day(s).
| Time | Temp. | Humidity | Pressure | Rain* | Wind** | Luminosity | Snow |
|---|---|---|---|---|---|---|---|
| 1777508377 | 20.56° C | 18% | 1013.4 hPa | 0 mm | - | 352 W/m² | - |
| 1777508074 | 20.56° C | 17% | 1013.5 hPa | 0 mm | - | 371 W/m² | - |
| 1777507771 | 20° C | 17% | 1013.5 hPa | 0 mm | - | 365 W/m² | - |
| 1777507468 | 20.56° C | 18% | 1013.6 hPa | 0 mm | - | 402 W/m² | - |
| 1777507165 | 20.56° C | 17% | 1013.7 hPa | 0 mm | - | 420 W/m² | - |
| 1777506862 | 20.56° C | 18% | 1013.6 hPa | 0 mm | - | 446 W/m² | - |
| 1777506559 | 21.11° C | 18% | 1013.7 hPa | 0 mm | - | 391 W/m² | - |
| 1777506255 | 20° C | 18% | 1013.5 hPa | 0 mm | - | 438 W/m² | - |
| 1777505952 | 20° C | 19% | 1013.7 hPa | 0 mm | - | 461 W/m² | - |
| 1777505647 | 20° C | 19% | 1013.8 hPa | 0 mm | - | 481 W/m² | - |
| 1777505345 | 20° C | 19% | 1013.8 hPa | 0 mm | - | 508 W/m² | - |
| 1777505041 | 20° C | 19% | 1013.9 hPa | 0 mm | - | 466 W/m² | - |
| 1777504738 | 19.44° C | 19% | 1013.8 hPa | 0 mm | - | 486 W/m² | - |
| 1777504435 | 20° C | 19% | 1013.7 hPa | 0 mm | - | 503 W/m² | - |
| 1777504130 | 20° C | 18% | 1013.8 hPa | 0 mm | - | 376 W/m² | - |
| 1777503826 | 20° C | 18% | 1014.1 hPa | 0 mm | - | 563 W/m² | - |
| 1777503523 | 21.11° C | 17% | 1014.1 hPa | 0 mm | - | 549 W/m² | - |
| 1777503219 | 20.56° C | 17% | 1014.2 hPa | 0 mm | - | 587 W/m² | - |
| 1777502916 | 20° C | 17% | 1014.3 hPa | 0 mm | - | 604 W/m² | - |
| 1777502614 | 20° C | 17% | 1014.5 hPa | 0 mm | - | 581 W/m² | - |
| 1777502310 | 20.56° C | 17% | 1014.5 hPa | 0 mm | - | 566 W/m² | - |
| 1777502007 | 19.44° C | 18% | 1014.4 hPa | 0 mm | - | 597 W/m² | - |
| 1777501704 | 19.44° C | 17% | 1014.5 hPa | 0 mm | - | 596 W/m² | - |
| 1777501401 | 19.44° C | 17% | 1014.5 hPa | 0 mm | - | 624 W/m² | - |
| 1777501099 | 19.44° C | 17% | 1014.5 hPa | 0 mm | - | 609 W/m² | - |
* Rain latest hour (hover to see other rain measurements)
** Current wind speed in m/s (hover to see current wind gust speed)